Location: Czestochowa
(50.8000°N, 19.1167°E)
Time: 20:39:47
(UTC+01:00)

ISS - Visible Passes

Search period start: 18 January 2018 00:00
Search period end: 28 January 2018 00:00
Orbit: 402 x 407 km, 51.6° (Epoch: 18 January)

Date Brightness Start Highest point End Pass type
(mag) Time Alt. Az. Time Alt. Az. Time Alt. Az.
26 Jan -1.3 18:55:23 10° SSW 18:56:18 16° SSW 18:56:18 16° SSW visible
27 Jan -2.2 18:03:37 10° SSW 18:06:07 20° SE 18:06:18 20° SE visible
27 Jan -0.4 19:38:57 10° WSW 19:38:58 10° WSW 19:38:58 10° WSW visible
